User: anonymous   Login
Location: ???????
(55.4362°N, 38.1183°E)
Time: 04:16:02
(UTC+00:00)
Language:

Cosmos 1340 - Orbit

View from above orbital plane
View from above orbital plane
View from above satellite
View from above satellite

Ground track
Ground track

The orbit data is extracted from the following two-line orbital elements,

1 13067U 82013A   21268.28494397  .00001527  00000-0  66552-4 0  9999
2 13067  81.1835 111.2421 0002587 332.3065  27.8028 15.21617191165026
Epoch (UTC): 25 September 2021 06:50:19
Eccentricity: 0.0002587
inclination: 81.1835°
perigee height: 499 km
apogee height: 503 km
right ascension of ascending node: 111.2421°
argument of perigee: 332.3065°
revolutions per day: 15.21617191
mean anomaly at epoch: 27.8028°
orbit number at epoch: 16502

The dashed part of the orbit path shows where the satellite is in the earth's shadow,  

DLR